Change the Weather History Date:

Saturday, December 29, 2012

  Actual Average Record
Temperature  
Mean Temperature 55 °F 52 °F  
Max Temperature 67 °F 61 °F 78 °F (1984)
Min Temperature 43 °F 43 °F 27 °F (1977)
Degree Days  
Heating Degree Days 10 13  
Month to date heating degree days 201 322  
Since 1 July heating degree days 432 502  
Cooling Degree Days 0 0  
Month to date cooling degree days 11 9  
Year to date cooling degree days 2919 2624  
Growing Degree Days 6 (Base 50)    
Moisture  
Dew Point 52 °F    
Average Humidity 79    
Maximum Humidity 100    
Minimum Humidity 58    
Precipitation  
Precipitation 0.50 in 0.08 in 1.07 in (1983)
Month to date precipitation 1.80 2.47  
Year to date precipitation 41.16 44.83  
Snow  
Snow 0.00 in - 0.00 in ()
Month to date snowfall 0.0  
Since 1 July snowfall 0.0  
Snow Depth 0.00 in    
Sea Level Pressure  
Sea Level Pressure 29.90 in    
Wind  
Wind Speed 11 mph (West)    
Max Wind Speed 21 mph    
Max Gust Speed 28 mph    
Visibility 9 miles    
Events Rain    
T = Trace of Precipitation, MM = Missing Value Source: NWS Daily Summary

Daily Weather History Graph

Daily Weather History Graph

Search for Another Location

Airport or City:

Trip Planner

Search our weather history database for the weather conditions in past years. The results will help you decide how hot, cold, wet, or windy it might be!

Date:

Astronomy

Dec. 29, 2012 Rise Set
Actual Time 7:23 AM EST 5:32 PM EST
Civil Twilight 6:56 AM EST 5:59 PM EST
Nautical Twilight 6:26 AM EST 6:29 PM EST
Astronomical Twilight 5:57 AM EST 6:58 PM EST
Moon 6:57 PM EST (12/29) 8:01 AM EST (12/29)
Length of Visible Light 11h 02m
Length of Day
10h 09m
Full, 98% of the Moon is Illuminated
Dec 29
Full
Jan 4
Last Quarter
Jan 11
New
Jan 18
First Quarter
Jan 26
Full

Hourly Weather History & Observations

Time (EST) Temp. Windchill Dew Point Humidity Pressure Visibility Wind Dir Wind Speed Gust Speed Precip Events Conditions
12:20 AM 57.2 °F - 55.4 °F 94% 29.90 in 10.0 mi Calm Calm - 0.00 in   Overcast
12:53 AM 57.9 °F - 55.9 °F 93% 29.87 in 10.0 mi ESE 3.5 mph - 0.00 in   Overcast
1:37 AM 59.0 °F - 55.4 °F 88% 29.85 in 7.0 mi Calm Calm - 0.03 in Rain Light Rain
1:53 AM 59.0 °F - 57.0 °F 93% 29.83 in 10.0 mi SE 5.8 mph - 0.03 in   Overcast
2:53 AM 60.1 °F - 57.9 °F 93% 29.79 in 10.0 mi SSE 6.9 mph - N/A   Overcast
3:51 AM 60.8 °F - 57.2 °F 88% 29.77 in 6.0 mi SSE 8.1 mph - 0.01 in Rain Light Rain
3:53 AM 60.1 °F - 57.9 °F 93% 29.77 in 6.0 mi South 8.1 mph - 0.01 in Rain Light Rain
4:35 AM 60.8 °F - 60.8 °F 100% 29.78 in 1.8 mi SSW 6.9 mph - 0.20 in Rain Rain
4:53 AM 63.0 °F - 62.1 °F 97% 29.77 in 3.0 mi WSW 5.8 mph - 0.37 in Rain Light Rain
5:53 AM 64.9 °F - 63.0 °F 93% 29.76 in 9.0 mi SSW 5.8 mph - 0.01 in Rain Light Rain
6:53 AM 66.0 °F - 64.9 °F 96% 29.78 in 10.0 mi SW 12.7 mph - 0.01 in   Overcast
7:38 AM 66.2 °F - 64.4 °F 94% 29.79 in 9.0 mi SW 15.0 mph - 0.00 in Rain Light Rain
7:53 AM 66.9 °F - 64.9 °F 93% 29.81 in 9.0 mi West 10.4 mph - 0.00 in   Overcast
8:00 AM 66.2 °F - 64.4 °F 94% 29.81 in 2.5 mi West 8.1 mph - 0.04 in Rain Heavy Rain
8:08 AM 66.2 °F - 64.4 °F 94% 29.81 in 3.0 mi West 9.2 mph - 0.06 in Rain Rain
8:25 AM 66.2 °F - 64.4 °F 94% 29.82 in 10.0 mi West 10.4 mph 17.3 mph 0.07 in Rain Light Rain
8:53 AM 66.0 °F - 63.0 °F 90% 29.83 in 10.0 mi West 10.4 mph 19.6 mph 0.07 in   Overcast
9:53 AM 61.0 °F - 57.9 °F 90% 29.88 in 10.0 mi WNW 15.0 mph 24.2 mph N/A   Overcast
10:29 AM 59.0 °F - 53.6 °F 82% 29.90 in 10.0 mi West 9.2 mph 19.6 mph N/A   Mostly Cloudy
10:53 AM 60.1 °F - 54.0 °F 80% 29.90 in 10.0 mi West 11.5 mph 20.7 mph N/A   Scattered Clouds
11:09 AM 60.8 °F - 53.6 °F 77% 29.91 in 10.0 mi West 12.7 mph 21.9 mph N/A   Mostly Cloudy
11:53 AM 59.0 °F - 50.0 °F 72% 29.92 in 10.0 mi WNW 16.1 mph 21.9 mph N/A   Mostly Cloudy
12:21 PM 57.2 °F - 48.2 °F 72% 29.91 in 10.0 mi WNW 12.7 mph 26.5 mph N/A   Scattered Clouds
12:34 PM 57.2 °F - 46.4 °F 67% 29.91 in 10.0 mi WNW 13.8 mph 24.2 mph N/A   Mostly Cloudy
12:53 PM 57.0 °F - 46.9 °F 69% 29.91 in 10.0 mi WNW 15.0 mph 24.2 mph N/A   Mostly Cloudy
1:53 PM 57.0 °F - 45.0 °F 64% 29.90 in 10.0 mi WNW 10.4 mph 21.9 mph N/A   Mostly Cloudy
2:53 PM 57.0 °F - 45.0 °F 64% 29.91 in 10.0 mi WNW 11.5 mph - N/A   Overcast
3:23 PM 55.4 °F - 42.8 °F 63% 29.92 in 10.0 mi West 13.8 mph 23.0 mph N/A   Mostly Cloudy
3:53 PM 55.0 °F - 43.0 °F 64% 29.94 in 10.0 mi West 12.7 mph 24.2 mph N/A   Scattered Clouds
4:53 PM 54.0 °F - 42.1 °F 64% 29.95 in 10.0 mi West 10.4 mph 18.4 mph N/A   Clear
5:53 PM 53.6 °F - 42.8 °F 67% 29.97 in 10.0 mi West 8.1 mph - N/A   Clear
6:53 PM 51.1 °F - 39.0 °F 63% 30.02 in 10.0 mi West 12.7 mph 20.7 mph N/A   Clear
7:53 PM 48.0 °F - 37.0 °F 66% 30.05 in 10.0 mi WNW 13.8 mph 21.9 mph N/A   Mostly Cloudy
8:53 PM 48.0 °F - 36.0 °F 63% 30.09 in 10.0 mi West 11.5 mph 20.7 mph N/A   Overcast
9:53 PM 46.0 °F 39.9 °F 32.0 °F 58% 30.12 in 10.0 mi WNW 13.8 mph 21.9 mph N/A   Overcast
10:53 PM 45.0 °F 40.1 °F 30.9 °F 58% 30.15 in 10.0 mi WNW 9.2 mph 24.2 mph N/A   Overcast
11:53 PM 44.1 °F 38.1 °F 28.9 °F 55% 30.17 in 10.0 mi WNW 11.5 mph 26.5 mph N/A   Partly Cloudy